Location: Plzen
(49.7500°N, 13.3670°E)
Time: 02:27:22
(UTC+01:00)

ISS - Pass Details

Date: 02 October 2020
Orbit: 417 x 420 km, 51.6° (Epoch: 25 October)

Event Time Altitude Azimuth Distance (km) Brightness Sun altitude
Rises 20:18:34 0° 288° (WNW) 2,370 1.9 -16.3°
Reaches altitude 10° 20:20:43 10° 283° (WNW) 1,504 0.4 -16.7°
Maximum altitude 20:23:58 47° 208° (SSW) 564 -3.1 -17.2°
Enters shadow 20:24:57 35° 160° (SSE) 701 -3.0 -17.3°
